Weather observations for the past three days for
St. Croix
Imperial (Metric)
Date Time (ast) Wind (mph) Vis. (mi.) Weather Sky Cond. Temperature (ºF) Relative Humidity Wind Chill (°F) Heat Index (°F) Pressure Precipitation (in)
Air Dwpt 6 hour altimeter (in) sea level (mb) 1 hr 3 hr 6 hr
Max. Min.
17 07:53 E 13 10.00 A Few Clouds FEW021 86 77 87.1 82 75% 97 30.05 1017.3
17 06:53 E 13 10.00 Partly Cloudy FEW025 SCT038 84 77 80% 94 30.03 1016.8
17 05:53 E 15 10.00 A Few Clouds FEW023 84 75.9 77% 93 30.01 1016.1
17 04:53 E 13 10.00 A Few Clouds FEW022 82.4 77 84% 91 30 0.0
17 03:53 E 13 10.00 A Few Clouds FEW025 82.4 77 84% 91 30 0.0
17 02:53 E 14 G 21 10.00 A Few Clouds FEW021 82.9 77 82% 92 30 1015.7
17 01:53 E 10 10.00 A Few Clouds FEW019 FEW030 82.4 78.8 89% 92 30.01 0.0
17 00:53 NE 7 10.00 A Few Clouds FEW019 80.6 78.8 94% 88 30.03 0.0
16 23:53 NE 6 10.00 Fair CLR 80.6 78.8 94% 88 30.05 0.0
16 22:53 E 9 10.00 A Few Clouds FEW110 80.6 77 89% 87 30.06 0.0
16 21:53 SE 13 G 33 9.00 Mostly Cloudy BKN018 BKN029 BKN037 82.4 77 84% 91 30.08 0.0
16 20:53 E 8 10.00 Fair CLR 82.4 78.8 89% 92 30.05 0.0
16 19:53 E 7 10.00 Fair CLR 82.4 77 84% 91 30.05 0.0
16 18:53 E 12 10.00 Fair CLR 84.2 75.2 74% 92 30.04 0.0
16 17:53 E 15 10.00 Fair CLR 87.8 73.4 62% 96 30 0.0
16 16:53 E 15 G 25 10.00 Mostly Cloudy BKN050 88 75 66% 98 29.99 1015.3
16 15:53 E 12 10.00 Fair CLR 87.8 75.2 66% 98 30 0.0
16 14:53 SE 14 10.00 A Few Clouds FEW021 87.8 77 70% 100 30 0.0
16 13:53 SE 15 10.00 Partly Cloudy FEW025 SCT040 89.1 78.1 91 82.9 70% 103 30.01 1016.1
16 12:53 E 17 G 24 10.00 Light Rain SCT020 BKN050 89.6 78.8 71% 105 30.03 0.0
16 11:53 SE 15 G 22 10.00 Partly Cloudy FEW018 SCT040 90 79 70% 106 30.03 1016.8
16 10:53 SE 14 G 22 10.00 Mostly Cloudy SCT030 BKN060 89.1 79 72% 105 30.04 1016.9
16 09:53 E 14 G 22 10.00 Fair CLR 89.1 78.1 70% 103 30.03 1016.8
16 08:53 E 16 10.00 A Few Clouds FEW020 87.8 78.8 75% 102 30.02 0.0
16 07:53 NE 8 10.00 A Few Clouds FEW021 82.4 75.2 79% 89 30.01 0.0
16 06:53 NE 7 10.00 A Few Clouds FEW040 81 77 88% 88 30.01 1016.0
16 05:53 NE 6 10.00 Fair CLR 78.8 75.2 89% 82 29.98 0.0
16 04:53 NE 6 10.00 Fair CLR 78.8 75.2 89% 82 29.96 0.0
16 03:53 NE 7 10.00 A Few Clouds FEW030 78.8 75.2 89% 82 29.96 0.0
16 02:53 NE 6 10.00 Partly Cloudy FEW033 SCT065 78.8 75.2 89% 82 29.96 0.0
16 01:53 N 6 10.00 A Few Clouds FEW025 78.8 75.2 89% 82 29.98 0.0
16 00:53 NE 5 10.00 Fair CLR 79 75 88% 83 30 1015.6
15 23:53 N 5 10.00 Fair CLR 78.8 75.2 89% 82 30.01 0.0
15 22:53 E 3 10.00 A Few Clouds FEW080 80.1 73.9 82% 85 30.02 1016.3
15 21:53 NE 6 10.00 Fair CLR 80.6 73.4 79% 85 30.01 0.0
15 20:53 NE 6 10.00 Fair CLR 80.6 73.4 79% 85 30.01 0.0
15 19:53 NE 6 10.00 Partly Cloudy SCT025 81 73.9 90 81 79% 86 29.99 1015.5
15 18:53 E 8 10.00 Partly Cloudy FEW018 SCT030 82.9 73.9 74% 89 29.98 1015.0
15 17:53 E 12 10.00 Partly Cloudy FEW020 SCT030 84.9 73.9 70% 92 29.97 1014.7
15 16:53 E 9 10.00 Partly Cloudy FEW020 SCT030 86 75 70% 95 29.96 1014.2
15 15:53 E 13 10.00 Partly Cloudy FEW021 SCT030 88 75 66% 98 29.95 1014.1
15 14:53 SE 13 10.00 Partly Cloudy SCT027 89.6 75.2 63% 100 29.96 0.0
15 13:53 E 13 10.00 Partly Cloudy FEW037 SCT049 SCT060 89.6 75.2 63% 100 29.98 0.0
15 12:53 E 12 G 21 10.00 Mostly Cloudy BKN035 BKN046 87.1 73.9 65% 95 30 1015.8
15 11:53 E 12 G 20 10.00 Mostly Cloudy BKN034 BKN046 87.8 73.4 62% 96 30.01 0.0
15 10:53 SE 10 10.00 Mostly Cloudy BKN035 BKN048 87.8 73.4 62% 96 30.02 0.0
15 09:53 E 12 10.00 Overcast FEW031 BKN043 OVC070 86 73.4 66% 93 30.01 0.0
15 08:53 E 9 10.00 Partly Cloudy FEW029 SCT035 87.8 75.2 66% 98 30.01 0.0
15 07:53 E 7 10.00 Fair CLR 84.2 75.2 74% 92 30.01 0.0
15 06:53 N 5 10.00 A Few Clouds FEW026 80.1 75.9 87% 85 30 1015.6
15 05:53 N 6 10.00 Fair CLR 77 73.4 89% 78 29.97 0.0
15 04:53 N 6 10.00 Fair CLR 77 73.9 90% 78 29.96 1014.5
15 03:53 N 6 10.00 Fair CLR 77 73.4 89% 78 29.96 0.0
15 02:53 NE 6 10.00 Fair CLR 77 73.4 89% 78 29.96 0.0
15 01:53 NE 6 10.00 Fair CLR 77 73.4 89% 78 29.97 0.0
15 00:53 NE 5 10.00 Fair CLR 78.8 73.4 84% 82 29.99 0.0
14 23:53 NE 7 10.00 Fair CLR 79 75 88% 83 30.01 1016.1
14 22:53 NE 6 10.00 Fair CLR 80.6 75.2 84% 86 30.03 0.0
14 21:53 NE 6 10.00 Fair CLR 80.6 75.2 84% 86 30.03 0.0
14 20:53 NE 6 10.00 Fair CLR 80.6 77 89% 87 30.02 0.0
14 19:53 NE 6 10.00 Rain CLR 80.6 78.8 94% 88 30.01 0.0
14 18:53 NE 6 10.00 Rain CLR 82.4 78.8 89% 92 29.99 0.0
14 17:53 E 13 8.00 Rain FEW025 SCT035 86 79 80% 100 29.98 1015.0
14 16:53 NE 13 10.00 A Few Clouds FEW027 90 78.1 68% 105 29.97 1014.6
14 15:53 E 13 10.00 Partly Cloudy FEW020 SCT030 91 78.1 66% 106 29.96 1014.4
14 14:53 E 18 G 22 10.00 Partly Cloudy FEW021 SCT030 89.1 77 68% 102 29.98 1014.9
14 13:53 NE 14 10.00 Fair CLR 91.4 73.4 56% 100 29.99 0.0
14 12:53 NE 17 10.00 Fair CLR 91.4 78.8 67% 108 30 0.0
14 11:53 NE 15 10.00 Fair CLR 91.4 78.8 67% 108 30.02 0.0
14 10:53 E 15 10.00 Partly Cloudy SCT026 SCT034 90 78.1 68% 105 30.03 1016.8
14 09:53 NE 12 10.00 Fair CLR 88 78.1 73% 102 30.03 1016.8
14 08:53 NE 7 10.00 Overcast SCT022 BKN050 OVC060 84.2 80.6 89% 98 30.03 0.0
Date Time (ast) Wind (mph) Vis. (mi.) Weather Sky Cond. Air Dwpt Max. Min. Relative Humidity Wind Chill (°F) Heat Index (°F) altimeter (in) sea level (mb) 1 hr 3 hr 6 hr
6 hour
Temperature (ºF) Pressure Precipitation (in)